{"data":{"norad_id":64477,"intl_designator":"2025-133F","name":"STARLINK-34375","alt_names":[],"object_type":"PAYLOAD","status":"ACTIVE","operator":null,"country":"US","launch_date":"2025-06-23","launch_site_code":"AFETR","launch_vehicle":null,"mission":null,"orbit_class":"UNKNOWN","rcs_meters":null,"size_class":null,"mass_kg":null,"dimensions":null,"purposes":["comms"],"wikipedia_slug":null,"has_3d_model":false,"image_url":null,"decayed_at":null,"tle_current":{"epoch":"2026-09-20T06:29:15.634176Z","epoch_age_seconds":151051,"freshness":"FRESH","line1":"1 64477U 25133F   26263.27031984  .00012425  00000+0  37822-3 0  9993","line2":"2 64477  53.1605 287.0294 0002116  68.5349 291.5879 15.34402599 71064","mean_motion":15.34402599,"eccentricity":0.0002116,"inclination_deg":53.1605,"raan_deg":287.0294,"arg_perigee_deg":68.5349,"mean_anomaly_deg":291.5879,"bstar":0.00037822,"rev_number":7106,"period_min":93.847599120236,"perigee_km":461.24799528203,"apogee_km":464.14303560256,"semimajor_km":6840.8325154423,"source":"CELESTRAK","updated_at":"2026-09-21T09:00:35.359069Z"}}}